GW6648 Weather Reports


time (UTC)temp
C
wind
direction
speed
KPH
gust
KPH
rain 1hr
cm
rain 24hr
cm
rain mn
cm
humidity
%
barometer
mb
20260505095211 16 17 3.2 4.8 0.00 0.00 0.00 70
20260505094706 16 356 1.6 3.2 0.00 0.00 0.00 70
20260505094202 16 12 6.4 9.7 0.00 0.00 0.00 69
20260505093659 17 8 3.2 3.2 0.00 0.00 0.00 68
20260505093156 17 70 3.2 4.8 0.00 0.00 0.00 67
20260505092653 17 353 1.6 3.2 0.00 0.00 0.00 66
20260505092152 17 14 3.2 6.4 0.00 0.00 0.00 65
20260505091648 17 355 3.2 4.8 0.00 0.00 0.00 65
20260505091147 17 24 3.2 9.7 0.00 0.00 0.00 65
20260505090644 17 29 6.4 6.4 0.00 0.00 0.00 64
20260505090142 18 51 3.2 6.4 0.00 0.00 0.00 62
20260505085639 18 18 4.8 6.4 0.00 0.00 0.00 61
20260505085137 18 66 4.8 6.4 0.00 0.00 0.00 61
20260505084635 18 22 6.4 6.4 0.00 0.00 0.00 61
20260505084133 18 80 4.8 6.4 0.00 0.00 0.00 60
20260505083630 18 91 8.0 11.3 0.00 0.00 0.00 59
20260505083126 18 354 1.6 16.1 0.00 0.00 0.00 58
20260505082622 18 10 4.8 11.3 0.00 0.00 0.00 57
20260505082120 18 21 6.4 11.3 0.00 0.00 0.00 56
20260505081615 18 3 4.8 11.3 0.00 0.00 0.00 55
20260505081114 18 22 4.8 11.3 0.00 0.00 0.00 54
20260505080609 18 18 3.2 6.4 0.00 0.00 0.00 52
20260505080106 19 114 1.6 4.8 0.00 0.00 0.00 52
20260505075601 19 33 9.7 14.5 0.00 0.00 0.00 51
20260505075058 20 112 4.8 9.7 0.00 0.00 0.00 50
20260505074555 19 345 4.8 6.4 0.00 0.00 0.00 51
20260505074053 19 337 6.4 11.3 0.00 0.00 0.00 51
20260505073550 20 33 3.2 11.3 0.00 0.00 0.00 51
20260505073049 20 122 3.2 6.4 0.00 0.00 0.00 50
20260505072544 20 34 3.2 9.7 0.00 0.00 0.00 53
20260505072040 20 81 3.2 12.9 0.00 0.00 0.00 52
20260505071536 20 26 6.4 11.3 0.00 0.00 0.00 53
20260505071034 20 89 3.2 9.7 0.00 0.00 0.00 52
20260505070531 20 198 6.4 9.7 0.00 0.00 0.00 54
20260505070027 20 354 8.0 11.3 0.00 0.00 0.00 52
20260505065523 20 358 16.1 27.4 0.00 0.00 0.00 55
20260505065020 20 3 14.5 17.7 0.00 0.00 0.00 54
20260505064517 20 95 8.0 16.1 0.00 0.00 0.00 56
20260505064015 20 15 17.7 27.4 0.00 0.00 0.00 53
20260505063512 20 15 6.4 14.5 0.00 0.00 0.00 55
20260505063008 20 3 20.9 27.4 0.00 0.00 0.00 55
20260505062505 20 5 9.7 14.5 0.00 0.00 0.00 54
20260505062002 20 45 12.9 16.1 0.00 0.00 0.00 54
20260505061500 20 58 14.5 24.1 0.00 0.00 0.00 57
20260505060957 20 9 14.5 22.5 0.00 0.00 0.00 55
20260505060454 20 355 20.9 25.7 0.00 0.00 0.00 57
20260505055950 20 8 19.3 29.0 0.00 0.00 0.00 56
20260505055446 20 14 20.9 24.1 0.00 0.00 0.00 55
20260505054943 20 0 17.7 27.4 0.00 0.00 0.00 54
20260505054441 20 356 12.9 25.7 0.00 0.00 0.00 54
20260505053939 20 320 17.7 27.4 0.00 0.00 0.00 53
20260505053436 19 352 6.4 24.1 0.00 0.00 0.00 55
20260505052932 20 13 14.5 25.7 0.00 0.00 0.00 54
20260505052429 19 7 14.5 25.7 0.00 0.00 0.00 54
20260505051926 20 352 17.7 22.5 0.00 0.00 0.00 53
20260505051423 19 347 20.9 22.5 0.00 0.00 0.00 54
20260505050921 20 3 19.3 25.7 0.00 0.00 0.00 52
20260505050420 20 11 17.7 22.5 0.00 0.00 0.00 52
20260505041347 20 352 16.1 17.7 0.00 0.00 0.00 48
20260505040844 20 359 16.1 20.9 0.00 0.00 0.00 44
20260505040342 21 345 14.5 17.7 0.00 0.00 0.00 41
20260505035838 21 15 4.8 9.7 0.00 0.00 0.00 41
20260505035334 20 344 9.7 16.1 0.00 0.00 0.00 39
20260505034832 20 15 0.0 11.3 0.00 0.00 0.00 38
20260505034328 20 353 6.4 14.5 0.00 0.00 0.00 41
20260505033825 19 35 4.8 6.4 0.00 0.00 0.00 38
20260505033322 20 6 3.2 9.7 0.00 0.00 0.00 43
20260505032820 20 354 0.0 4.8 0.00 0.00 0.00 33
20260505032316 21 346 9.7 12.9 0.00 0.00 0.00 29
20260505031814 20 355 3.2 6.4 0.00 0.00 0.00 30
20260505031310 20 10 4.8 11.3 0.00 0.00 0.00 31
20260505030807 20 335 3.2 6.4 0.00 0.00 0.00 33
20260505030303 19 7 3.2 4.8 0.00 0.00 0.00 37
20260505025758 19 1 12.9 14.5 0.00 0.00 0.00 32
20260505025257 20 359 9.7 16.1 0.00 0.00 0.00 33
20260505024755 19 9 3.2 11.3 0.00 0.00 0.00 37
20260505024252 19 356 11.3 12.9 0.00 0.00 0.00 38
20260505023749 20 342 11.3 14.5 0.00 0.00 0.00 34
20260505023246 20 15 9.7 11.3 0.00 0.00 0.00 34
20260505022743 19 355 8.0 17.7 0.00 0.00 0.00 37
20260505022240 20 4 8.0 12.9 0.00 0.00 0.00 38
20260505021737 18 320 1.6 4.8 0.00 0.00 0.00 42
20260505021234 19 343 8.0 16.1 0.00 0.00 0.00 42
20260505020729 18 339 4.8 6.4 0.00 0.00 0.00 40
20260505020225 18 348 4.8 12.9 0.00 0.00 0.00 42
20260505015723 18 2 6.4 20.9 0.00 0.00 0.00 41
20260505015219 18 358 11.3 14.5 0.00 0.00 0.00 43
20260505014716 18 16 6.4 12.9 0.00 0.00 0.00 42
20260505014214 18 4 6.4 17.7 0.00 0.00 0.00 42
20260505013711 20 7 14.5 20.9 0.00 0.00 0.00 39
20260505013208 19 192 3.2 4.8 0.00 0.00 0.00 40
20260505012706 18 355 14.5 16.1 0.00 0.00 0.00 42
20260505012203 20 3 11.3 17.7 0.00 0.00 0.00 42
20260505011658 21 308 1.6 3.2 0.00 0.00 0.00 37
20260505011156 20 326 1.6 4.8 0.00 0.00 0.00 37
20260505010651 20 38 0.0 3.2 0.00 0.00 0.00 37
20260505010148 20 320 3.2 3.2 0.00 0.00 0.00 36
20260505005644 20 118 1.6 3.2 0.00 0.00 0.00 38
20260505005141 20 44 3.2 6.4 0.00 0.00 0.00 34
20260505004638 20 358 1.6 3.2 0.00 0.00 0.00 35
20260505004135 20 97 0.0 4.8 0.00 0.00 0.00 34
20260505003632 20 263 1.6 3.2 0.00 0.00 0.00 34
20260505003130 20 202 1.6 4.8 0.00 0.00 0.00 32
20260505002625 20 19 1.6 3.2 0.00 0.00 0.00 35
20260505002124 20 256 0.0 9.7 0.00 0.00 0.00 37
20260505001621 20 339 3.2 9.7 0.00 0.00 0.00 35
20260505001118 19 70 4.8 6.4 0.00 0.00 0.00 37
20260505000615 18 193 1.6 3.2 0.00 0.00 0.00 38
20260505000113 18 180 1.6 4.8 0.00 0.00 0.00 37
20260504235609 18 28 0.0 4.8 0.00 0.00 0.00 39
20260504235106 18 178 1.6 9.7 0.00 0.00 0.00 37
20260504234603 18 199 3.2 3.2 0.00 0.00 0.00 37
20260504234100 18 342 1.6 9.7 0.00 0.00 0.00 39
20260504233555 18 344 1.6 4.8 0.00 0.00 0.00 39
20260504233052 18 316 1.6 4.8 0.00 0.00 0.00 45
20260504232549 18 115 3.2 6.4 0.00 0.00 0.00 45
20260504232047 17 308 1.6 3.2 0.00 0.00 0.00 47
20260504231543 17 182 4.8 4.8 0.00 0.00 0.00 48
20260504231039 17 123 1.6 4.8 0.00 0.00 0.00 47
20260504230536 17 304 3.2 3.2 0.00 0.00 0.00 49
20260504230035 17 41 1.6 3.2 0.00 0.00 0.00 51
20260504225531 16 346 3.2 4.8 0.00 0.00 0.00 51
20260504225029 16 339 0.0 4.8 0.00 0.00 0.00 52
20260504224525 16 175 1.6 3.2 0.00 0.00 0.00 55
20260504224022 16 227 4.8 6.4 0.00 0.00 0.00 53
20260504223519 16 186 4.8 4.8 0.00 0.00 0.00 55
20260504223015 16 81 1.6 4.8 0.00 0.00 0.00 55
20260504222512 15 284 1.6 4.8 0.00 0.00 0.00 57
20260504222009 15 294 1.6 3.2 0.00 0.00 0.00 58
20260504221507 15 225 3.2 3.2 0.00 0.00 0.00 57
20260504221003 14 189 3.2 3.2 0.00 0.00 0.00 59
20260504220500 14 311 1.6 6.4 0.00 0.00 0.00 59
20260504215956 13 307 0.0 4.8 0.00 0.00 0.00 62
20260504215453 13 340 3.2 3.2 0.00 0.00 0.00 63
20260504214950 13 293 1.6 3.2 0.00 0.00 0.00 64
20260504214446 13 201 6.4 9.7 0.00 0.00 0.00 63
20260504213943 12 327 0.0 3.2 0.00 0.00 0.00 65
20260504213439 12 226 1.6 9.7 0.00 0.00 0.00 64
20260504212937 12 247 3.2 6.4 0.00 0.00 0.00 64
20260504212432 12 172 1.6 3.2 0.00 0.00 0.00 66
20260504211930 13 222 0.0 3.2 0.00 0.00 0.00 65
20260504211426 12 326 0.0 1.6 0.00 0.00 0.00 66
20260504210924 12 287 1.6 1.6 0.00 0.00 0.00 66
20260504210420 12 319 0.0 0.0 0.00 0.00 0.00 66
20260504205918 12 319 0.0 0.0 0.00 0.00 0.00 67
20260504205415 11 324 0.0 3.2 0.00 0.00 0.00 67
20260504204913 11 211 3.2 4.8 0.00 0.00 0.00 67
20260504204411 11 212 3.2 3.2 0.00 0.00 0.00 70
20260504203911 10 300 0.0 1.6 0.00 0.00 0.00 72
20260504203408 10 252 0.0 1.6 0.00 0.00 0.00 74
20260504202903 10 353 0.0 0.0 0.00 0.00 0.00 76
20260504202400 10 344 0.0 1.6 0.00 0.00 0.00 76
20260504201856 10 280 0.0 1.6 0.00 0.00 0.00 75
20260504201354 10 320 0.0 0.0 0.00 0.00 0.00 75
20260504200851 10 318 0.0 0.0 0.00 0.00 0.00 75
20260504200348 10 313 0.0 0.0 0.00 0.00 0.00 74
20260504195845 10 258 1.6 3.2 0.00 0.00 0.00 73
20260504195340 10 296 1.6 3.2 0.00 0.00 0.00 73
20260504194837 10 214 3.2 4.8 0.00 0.00 0.00 74
20260504194333 10 237 1.6 6.4 0.00 0.00 0.00 74
20260504193829 10 220 1.6 3.2 0.00 0.00 0.00 74
20260504193327 10 230 3.2 3.2 0.00 0.00 0.00 75
20260504192825 10 253 3.2 6.4 0.00 0.00 0.00 75
20260504192323 10 246 0.0 4.8 0.00 0.00 0.00 75
20260504191821 10 223 1.6 3.2 0.00 0.00 0.00 75
20260504191318 10 206 3.2 4.8 0.00 0.00 0.00 75
20260504190814 11 233 1.6 4.8 0.00 0.00 0.00 76
20260504190310 11 235 3.2 4.8 0.00 0.00 0.00 76
20260504185807 11 194 3.2 3.2 0.00 0.00 0.00 77
20260504185304 11 285 0.0 3.2 0.00 0.00 0.00 77
20260504184800 11 241 0.0 4.8 0.00 0.00 0.00 78
20260504184255 11 311 0.0 6.4 0.00 0.00 0.00 78
20260504183752 11 311 1.6 1.6 0.00 0.00 0.00 78
20260504183248 11 262 0.0 6.4 0.00 0.00 0.00 78
20260504182747 11 172 3.2 4.8 0.00 0.00 0.00 78
20260504182243 11 271 1.6 3.2 0.00 0.00 0.00 78
20260504181741 11 235 1.6 4.8 0.00 0.00 0.00 78
20260504181238 11 267 1.6 6.4 0.00 0.00 0.00 78
20260504180738 11 234 1.6 4.8 0.00 0.00 0.00 78
20260504180236 11 190 1.6 3.2 0.00 0.00 0.00 77
20260504175733 11 260 3.2 4.8 0.00 0.00 0.00 77
20260504175229 11 230 3.2 6.4 0.00 0.00 0.00 76
20260504174728 11 181 3.2 6.4 0.00 0.00 0.00 77
20260504174225 11 214 3.2 6.4 0.00 0.00 0.00 77
20260504173721 11 316 1.6 4.8 0.00 0.00 0.00 77
20260504173219 11 221 1.6 3.2 0.00 0.00 0.00 77
20260504172715 12 302 1.6 3.2 0.00 0.00 0.00 77
20260504172211 12 164 6.4 6.4 0.00 0.00 0.00 77
20260504171708 12 215 1.6 3.2 0.00 0.00 0.00 77
20260504171205 12 215 1.6 3.2 0.00 0.00 0.00 78
20260504170702 11 325 0.0 1.6 0.00 0.00 0.00 79
20260504170159 12 335 0.0 3.2 0.00 0.00 0.00 79
20260504160118 13 275 0.0 1.6 0.00 0.00 0.00 75
20260504151045 12 328 0.0 1.6 0.00 0.00 0.00 74
20260504150542 13 250 1.6 1.6 0.00 0.00 0.00 74
20260504141008 13 352 1.6 4.8 0.00 0.08 0.08 76
20260504140505 13 164 1.6 3.2 0.00 0.08 0.08 76
20260504130429 14 205 6.4 6.4 0.00 0.08 0.08 74
20260504110316 14 316 0.0 3.2 0.00 0.08 0.08 78
20260504100234 15 200 6.4 11.3 0.00 0.08 0.08 75